Seaglider sg620 (Melonhead) on mission MASSMO 4 Piloting

  • Public vehicle
  • Serial Number sg620
  • Operated by on the MASSMO project

  • Deployed: 2017/06/02 08:00:00 UTC (781 days ago)
  • Recovered: 2017/06/06 00:00:00 UTC (778 days ago)
  • Time at Sea: 3 days
  • Profiles Performed: 32

Near Real-Time Data

 
temperature
salinity
conductivity

Communication Log

# Updated Depth Speed Plots
1180912 2017-06-05 16:18:21 UTC (778 days ago)
1180907 2017-06-05 15:52:48 UTC (778 days ago)
1180893 2017-06-05 15:13:37 UTC (778 days ago)
1180873 2017-06-05 13:46:46 UTC (778 days ago)
1180842 2017-06-05 12:41:25 UTC (778 days ago)
1180816 2017-06-05 11:37:00 UTC (778 days ago)
1180782 2017-06-05 10:16:50 UTC (778 days ago)
1180751 2017-06-05 06:40:48 UTC (778 days ago)
1180655 2017-06-05 03:53:42 UTC (779 days ago)
1180568 2017-06-05 01:09:57 UTC (779 days ago)
1180487 2017-06-04 22:23:19 UTC (779 days ago)
1180412 2017-06-04 19:37:00 UTC (779 days ago)
1180332 2017-06-04 16:46:11 UTC (779 days ago)
1180256 2017-06-04 13:55:34 UTC (779 days ago)
1180162 2017-06-04 11:04:07 UTC (779 days ago)
1180084 2017-06-04 07:48:00 UTC (779 days ago)
1179986 2017-06-04 04:29:26 UTC (780 days ago)
1179914 2017-06-04 01:35:41 UTC (780 days ago)
1179845 2017-06-03 22:19:57 UTC (780 days ago)
1179721 2017-06-03 19:29:39 UTC (780 days ago)